Total_Precipitation_Accumulation
0.02 0.06 0.12 0.17 0.16 0.11 0.06 0.05 0.06 0.07 0.13 0.21 0.36 0.46 0.48 0.47 0.49 0.43 0.31 0.30 0.31 0.33 0.32 0.34 0.39 0.42 0.48 0.60 0.62 0.67 0.80 0.88 0.96 0.98 1.06 1.20 1.28 1.24 1.26 1.28 1.28 1.42 1.49 1.47
0.03 0.05 0.08 0.11 0.14 0.10 0.06 0.06 0.05 0.07 0.14 0.26 0.43 0.47 0.50 0.47 0.42 0.39 0.38 0.34 0.38 0.41 0.41 0.39 0.42 0.48 0.54 0.61 0.69 0.85 1.14 1.25 1.25 1.30 1.34 1.36 1.37 1.35 1.40 1.47 1.61 1.66 1.64 1.61
0.05 0.07 0.08 0.13 0.12 0.10 0.09 0.08 0.08 0.12 0.21 0.29 0.41 0.54 0.61 0.53 0.41 0.40 0.38 0.40 0.45 0.55 0.59 0.55 0.54 0.57 0.60 0.64 0.71 0.89 1.12 1.25 1.35 1.38 1.41 1.47 1.48 1.51 1.53 1.59 1.67 1.73 1.80 1.80
0.10 0.10 0.17 0.15 0.14 0.14 0.13 0.13 0.16 0.25 0.35 0.40 0.41 0.47 0.50 0.42 0.41 0.44 0.44 0.51 0.58 0.59 0.68 0.71 0.72 0.72 0.79 0.87 0.97 1.07 1.17 1.29 1.44 1.50 1.54 1.57 1.56 1.49 1.47 1.51 1.51 1.48 1.47 1.47
0.21 0.20 0.18 0.17 0.20 0.21 0.20 0.26 0.29 0.40 0.52 0.57 0.55 0.53 0.61 0.54 0.51 0.52 0.56 0.60 0.69 0.77 0.79 0.85 0.95 0.99 1.00 1.10 1.22 1.27 1.32 1.46 1.57 1.66 1.74 1.67 1.56 1.52 1.45 1.44 1.35 1.28 1.25 1.25
0.33 0.34 0.34 0.26 0.30 0.30 0.31 0.53 0.52 0.57 0.67 0.73 0.73 0.89 0.96 0.72 0.68 0.63 0.61 0.64 0.68 0.83 0.98 0.98 1.07 1.16 1.21 1.23 1.25 1.30 1.32 1.40 1.52 1.61 1.74 1.78 1.68 1.61 1.55 1.56 1.50 1.42 1.34 1.31
0.41 0.43 0.39 0.37 0.35 0.36 0.65 0.89 0.81 0.77 0.76 0.84 0.94 0.88 0.83 0.70 0.70 0.70 0.64 0.64 0.66 0.73 0.89 0.96 1.03 1.12 1.24 1.27 1.22 1.22 1.20 1.20 1.31 1.46 1.60 1.66 1.66 1.61 1.63 1.60 1.52 1.39 1.29 1.24
0.54 0.68 0.76 0.55 0.45 0.65 0.91 0.91 0.98 0.89 0.87 0.91 0.95 0.96 0.91 0.84 0.78 0.72 0.62 0.63 0.67 0.71 0.78 0.90 1.05 1.24 1.37 1.36 1.31 1.29 1.30 1.37 1.41 1.44 1.43 1.40 1.42 1.42 1.48 1.53 1.49 1.40 1.23 1.09
0.82 0.95 0.88 0.64 0.65 0.73 0.75 0.91 0.95 0.90 0.91 0.94 0.92 0.90 0.85 0.76 0.73 0.77 0.70 0.68 0.66 0.73 0.80 0.94 1.13 1.33 1.53 1.53 1.51 1.49 1.48 1.48 1.48 1.48 1.46 1.44 1.40 1.38 1.36 1.32 1.25 1.17 1.05 1.03
1.08 1.21 1.03 0.86 0.77 0.78 0.85 0.92 0.97 0.93 0.98 0.97 0.90 0.83 0.80 0.77 0.73 0.78 0.78 0.72 0.71 0.73 0.79 0.90 0.99 1.12 1.31 1.40 1.42 1.49 1.45 1.36 1.27 1.24 1.21 1.23 1.27 1.29 1.30 1.26 1.22 1.14 1.04 1.05
1.37 1.56 1.41 1.22 1.02 0.91 1.01 1.15 1.21 1.16 1.08 0.99 0.99 1.01 1.03 0.98 0.86 0.78 0.77 0.79 0.77 0.78 0.81 0.84 0.90 0.95 1.05 1.17 1.27 1.41 1.47 1.41 1.36 1.30 1.24 1.23 1.28 1.35 1.28 1.22 1.20 1.12 1.04 1.09
1.57 1.58 1.62 1.52 1.22 1.11 1.18 1.30 1.34 1.23 1.20 1.16 1.13 1.10 1.01 0.92 0.83 0.77 0.74 0.77 0.82 0.87 0.89 0.86 0.88 0.95 1.03 1.15 1.31 1.47 1.48 1.40 1.39 1.39 1.36 1.32 1.29 1.30 1.33 1.17 1.13 1.06 1.04 1.05
1.27 1.41 1.51 1.44 1.33 1.29 1.31 1.36 1.41 1.33 1.20 1.15 1.07 1.01 0.96 0.89 0.84 0.78 0.76 0.79 0.90 0.97 0.92 0.87 0.86 0.91 1.01 1.15 1.35 1.49 1.49 1.45 1.40 1.37 1.37 1.33 1.26 1.22 1.25 1.16 0.98 0.89 0.87 0.84
1.27 1.36 1.51 1.53 1.49 1.41 1.45 1.52 1.53 1.44 1.30 1.18 1.07 0.97 0.95 0.96 0.92 0.90 0.89 0.95 0.96 0.90 0.81 0.78 0.80 0.81 0.88 1.00 1.22 1.41 1.43 1.46 1.42 1.34 1.31 1.28 1.24 1.21 1.17 1.16 1.06 0.92 0.82 0.73
1.21 1.17 1.30 1.33 1.41 1.42 1.49 1.47 1.43 1.42 1.28 1.13 0.99 0.90 0.84 0.87 0.96 1.00 1.04 1.11 1.04 0.89 0.78 0.73 0.69 0.66 0.70 0.78 0.90 1.04 1.12 1.12 1.13 1.16 1.17 1.15 1.08 1.01 0.95 0.91 0.91 0.91 0.78 0.62
1.02 1.07 1.06 1.16 1.23 1.21 1.25 1.29 1.30 1.30 1.20 1.12 1.01 0.94 0.89 0.84 0.85 0.91 1.01 1.04 1.04 0.97 0.86 0.77 0.76 0.71 0.69 0.78 0.84 0.84 0.86 0.96 0.92 0.86 0.86 0.87 0.83 0.78 0.74 0.75 0.79 0.86 0.80 0.62
1.00 1.08 1.05 1.07 1.08 1.07 1.01 1.05 1.11 1.16 1.11 1.06 0.97 0.85 0.80 0.80 0.87 0.94 0.97 0.89 0.79 0.73 0.71 0.69 0.69 0.68 0.67 0.74 0.79 0.76 0.71 0.69 0.70 0.62 0.64 0.72 0.74 0.70 0.66 0.70 0.76 0.84 0.78 0.59
0.91 0.97 0.93 0.87 0.83 0.88 0.86 0.88 0.97 0.96 0.96 0.93 0.83 0.74 0.70 0.74 0.84 0.91 0.83 0.74 0.69 0.63 0.56 0.51 0.49 0.48 0.53 0.55 0.56 0.54 0.50 0.49 0.46 0.44 0.50 0.55 0.55 0.61 0.69 0.75 0.79 0.83 0.76 0.63
0.82 0.76 0.74 0.71 0.64 0.69 0.71 0.71 0.80 0.84 0.82 0.77 0.71 0.69 0.68 0.70 0.72 0.75 0.66 0.63 0.63 0.59 0.48 0.39 0.41 0.37 0.37 0.35 0.37 0.39 0.41 0.40 0.37 0.39 0.45 0.45 0.46 0.53 0.68 0.75 0.77 0.77 0.75 0.73
0.73 0.64 0.58 0.56 0.51 0.52 0.56 0.60 0.57 0.59 0.62 0.62 0.65 0.66 0.62 0.63 0.60 0.60 0.58 0.58 0.55 0.46 0.39 0.33 0.32 0.35 0.35 0.31 0.30 0.30 0.34 0.36 0.35 0.33 0.34 0.37 0.42 0.46 0.52 0.58 0.63 0.66 0.68 0.69
0.64 0.57 0.54 0.55 0.53 0.51 0.48 0.45 0.43 0.43 0.45 0.48 0.53 0.57 0.57 0.57 0.52 0.53 0.62 0.64 0.53 0.41 0.37 0.38 0.34 0.32 0.32 0.33 0.32 0.28 0.31 0.34 0.34 0.34 0.33 0.35 0.40 0.45 0.50 0.54 0.58 0.59 0.62 0.67
0.68 0.60 0.56 0.56 0.58 0.56 0.50 0.45 0.41 0.40 0.42 0.47 0.47 0.50 0.57 0.60 0.57 0.58 0.62 0.66 0.59 0.55 0.42 0.35 0.31 0.30 0.31 0.30 0.30 0.33 0.34 0.37 0.41 0.44 0.42 0.41 0.44 0.51 0.56 0.56 0.58 0.58 0.62 0.66
0.70 0.67 0.66 0.67 0.67 0.64 0.55 0.49 0.47 0.46 0.46 0.48 0.49 0.56 0.61 0.65 0.65 0.66 0.62 0.56 0.55 0.58 0.50 0.43 0.40 0.37 0.33 0.29 0.33 0.40 0.39 0.39 0.42 0.45 0.47 0.46 0.47 0.50 0.55 0.55 0.60 0.61 0.62 0.66
0.78 0.73 0.70 0.64 0.60 0.64 0.62 0.57 0.54 0.52 0.51 0.50 0.50 0.56 0.66 0.71 0.70 0.67 0.67 0.64 0.59 0.54 0.51 0.52 0.48 0.45 0.40 0.35 0.41 0.44 0.44 0.45 0.45 0.44 0.42 0.41 0.43 0.47 0.56 0.59 0.60 0.60 0.61 0.64
0.88 0.79 0.68 0.61 0.59 0.60 0.63 0.64 0.60 0.53 0.50 0.52 0.51 0.53 0.58 0.67 0.76 0.76 0.72 0.64 0.58 0.52 0.52 0.53 0.51 0.55 0.50 0.49 0.48 0.46 0.46 0.50 0.54 0.53 0.49 0.49 0.52 0.56 0.59 0.56 0.52 0.50 0.52 0.57
0.94 0.85 0.75 0.67 0.60 0.57 0.61 0.65 0.67 0.64 0.58 0.55 0.54 0.54 0.58 0.63 0.68 0.74 0.77 0.71 0.62 0.57 0.57 0.57 0.55 0.57 0.56 0.59 0.63 0.62 0.58 0.58 0.57 0.56 0.56 0.57 0.62 0.64 0.53 0.45 0.42 0.44 0.46 0.48
0.91 0.85 0.77 0.70 0.62 0.56 0.54 0.57 0.61 0.64 0.64 0.64 0.61 0.62 0.68 0.73 0.74 0.73 0.71 0.67 0.60 0.58 0.60 0.57 0.52 0.48 0.45 0.46 0.49 0.50 0.49 0.50 0.55 0.61 0.63 0.62 0.60 0.56 0.47 0.41 0.39 0.40 0.44 0.44